Simultaneous Nadir Overpasses (SNOs) Predictions

Prediction of SNOs between GOES-16 and NOAA-20 Satellite Orbit:

Table of predicted SNOs for the next 14.0 days since TLE Epoch: 4/1/2023
Index Date Time (GOES-16) GOES-16 Lat,Lon NOAA-20 Lat,Lon Distance(km) Time Diff (sec)
1 04/01/2023 06:11:31 -0.06, -75.20 -0.78, -71.98 367.81 80
2 04/02/2023 18:36:08 0.05, -75.21 -0.43, -77.28 236.19 80
3 04/03/2023 18:14:45 0.05, -75.22 0.59, -72.75 280.90 80
4 04/05/2023 06:39:14 -0.04, -75.24 0.58, -78.02 317.58 80
5 04/06/2023 06:17:50 -0.05, -75.25 -0.45, -73.50 199.70 80
6 04/07/2023 18:42:28 0.04, -75.26 -0.75, -78.80 403.46 80
7 04/08/2023 18:21:04 0.05, -75.27 0.28, -74.28 114.04 80
8 04/10/2023 06:45:33 -0.04, -75.30 0.88, -79.55 483.97 80
9 04/11/2023 06:24:09 -0.04, -75.31 -0.09, -75.01 33.51 80
10 04/13/2023 18:30:03 0.03, -75.33 -0.04, -75.79 51.80 80
11 04/14/2023 18:08:38 0.03, -75.35 0.95, -71.26 466.31 80
